Regional Weather Roundup
Issued by NWS

Home | Current Version | Previous Version | Text Only | Print | Product List | Glossary On
Versions: 1 2 3 4 5 6 7 8 9 10 11 12 13 14 15 16 17 18 19 20 21 22 23 24 25 26 27 28 29 30 31 32 33 34 35 36 37 38 39 40 41 42 43 44 45 46 47 48 49 50
000
ASUS44 KLIX 312312
RWRLA
LOUISIANA WEATHER ROUNDUP
NATIONAL WEATHER SERVICE NEW ORLEANS LA
600 PM CDT FRI JUL 31 2015

NOTE: "FAIR" INDICATES FEW OR NO CLOUDS BELOW 12,000 FEET WITH NO
      SIGNIFICANT WEATHER AND/OR OBSTRUCTIONS TO VISIBILITY.
      SKY/WX - SKY CONDITION AND SIGNIFICANT WEATHER.
      TMP - AIR TEMPERATURE.    DP   - DEWPOINT TEMPERATURE.
      RH  - RELATIVE HUMIDITY.  PRES - PRESSURE.
      HX  - HEAT INDEX.         WCI  - WIND CHILL INDEX.

*  THESE STATIONS ARE NOT NWS OR FAA STATIONS AND ARE NOT UNDER
   NWS QUALITY CONTROL.

LAZ040-048-061>063-065-066-069-010000-
SOUTHEAST LOUISIANA

CITY           SKY/WX    TMP DP  RH WIND       PRES   REMARKS
N.O. AUDUBON     N/A     95  78  57 MISG        N/A  HX 112
N.O. INTL ARPT MOSUNNY   92  72  51 N13       29.86F HX  99
N.O. LAKEFRONT SUNNY     92  75  57 N13       29.87F HX 103
N.O. DOWNTOWN* FAIR      93  75  55 NW8       29.87F HX 104
RESERVE*       FAIR      94  70  45 NE7       29.88F HX 100
SLIDELL        SUNNY     93  76  57 N7        29.86F HX 105
BATON ROUGE    SUNNY     92  67  43 NE6       29.90F HX  95
BOOTHVILLE     MOSUNNY   89  77  67 NE3       29.87F HX 101
BELLE CHASSE   MOSUNNY   92  75  57 N7        29.85F HX 103
BOGALUSA*        N/A     93  64  37 N9        29.90F
GALLIANO*      NOT AVBL
NEW ROADS*     FAIR     N/A N/A N/A NW13      29.91F
GONZALES*      FAIR      92  71  50 N8        29.88F HX  97
HAMMOND*       SUNNY     95  63  34 NE5       29.90F HX  96
HOUMA*         MOSUNNY   91  75  59 N7        29.87F HX 102
PORT FOURCHON* PTCLDY    91  75  59 VRB5      29.87F HX 102

$$

LAZ041-044-053-054-010000-
SOUTHWEST LOUISIANA

CITY           SKY/WX    TMP DP  RH WIND       PRES   REMARKS
LAKE CHARLES   MOSUNNY   94  61  33 NE10      29.90F
LAFAYETTE      SUNNY     92  66  42 NE12      29.91F
PATTERSON      SUNNY     91  73  55 N8        29.90F HX 100
SALT POINT       N/A     92  74  55 MISG      29.87F HX 101
NEW IBERIA     SUNNY     92  70  48 N12       29.91F HX  97
CHENAULT AIRPK NOT AVBL

$$

LAZ027-028-010000-
CENTRAL LOUISIANA

CITY           SKY/WX    TMP DP  RH WIND       PRES   REMARKS
FORT POLK      SUNNY     92  63  37 NE9       29.92F
ALEXANDRIA INT SUNNY     93  59  31 NE8       29.92F
ALEXANDRIA     SUNNY     95  58  28 VRB6      29.94F

$$

LAZ001-002-010000-
NORTHWEST LOUISIANA

CITY           SKY/WX    TMP DP  RH WIND       PRES   REMARKS
SHREVEPORT     MOSUNNY   94  60  32 E13G20    29.98F
BARKSDALE AFB  SUNNY     94  58  30 NE8       29.98F
DTN SHREVEPORT SUNNY     92  58  31 E8        29.99F

$$

LAZ014-016-010000-
NORTHEAST LOUISIANA

CITY           SKY/WX    TMP DP  RH WIND       PRES   REMARKS
MONROE         SUNNY     92  63  38 NE14      29.98F
TALLULAH       SUNNY     93  60  33 NE9       29.96F

$$



USA.gov is the U.S. government's official web portal to all federal, state and local government web resources and services.